Wind_Speed
23 18 21 23 22 20 17 16 14 15 14 16 15 13 11 12 17 19 21 23 25 26 26 26 25 25 24 22 21 21 21 21 20 17 16 15 15 14 14 15 15 13 13 13
16 22 22 22 21 23 20 18 17 13 9 15 13 15 13 14 19 22 24 25 26 25 25 27 26 26 26 25 23 22 23 23 22 18 18 16 13 13 12 13 12 12 11 11
19 18 21 20 21 24 23 21 18 15 11 15 11 15 17 15 19 21 24 26 28 28 28 29 30 29 28 27 25 24 24 24 22 22 19 16 15 13 10 11 10 10 10 10
21 20 23 19 23 23 24 23 19 17 14 13 16 13 14 17 17 20 26 29 30 31 30 29 30 31 30 29 26 25 25 25 24 22 21 19 14 12 10 10 10 10 10 10
20 22 22 23 24 25 24 21 19 19 17 19 15 11 13 4 14 20 27 32 33 32 33 32 31 31 31 29 27 26 28 27 25 24 23 20 18 14 12 10 10 9 10 11
23 18 20 23 22 23 21 19 16 17 16 18 22 15 15 12 15 17 20 30 33 32 32 32 31 30 31 30 29 28 29 30 29 28 26 25 19 17 14 14 11 10 10 10
20 22 15 19 23 24 22 18 12 15 15 15 18 20 16 12 10 15 12 24 32 33 32 32 33 33 32 33 32 30 30 33 32 31 29 27 23 21 19 16 14 13 12 12
18 20 26 16 27 25 27 26 15 24 16 14 21 16 18 19 21 27 14 15 26 34 36 36 35 35 34 34 34 32 32 36 35 34 32 31 28 23 20 18 16 15 13 13
19 24 23 22 19 26 26 26 25 24 20 17 17 14 23 16 16 17 16 17 23 32 38 36 36 37 35 35 36 38 38 38 38 35 35 34 31 29 22 20 20 16 16 14
13 13 24 23 21 26 27 22 24 20 25 22 20 20 12 19 17 17 13 19 23 28 34 40 39 39 37 36 36 36 36 37 37 35 37 34 33 32 31 26 26 24 20 20
21 12 14 22 26 25 20 19 21 23 22 19 18 19 16 15 14 13 12 18 20 24 32 37 42 40 37 36 35 35 35 35 35 37 39 37 33 34 34 33 31 28 24 21
22 14 16 19 22 26 24 25 24 17 26 19 22 18 18 18 18 24 23 14 13 18 27 32 35 37 39 39 37 36 35 35 37 41 43 41 37 37 36 38 35 33 29 24
20 19 14 19 18 18 22 28 28 26 22 26 20 19 18 12 12 14 15 16 12 13 19 26 30 36 40 40 39 38 36 36 34 34 35 37 40 38 41 40 39 37 31 29
7 18 24 17 22 21 25 24 26 27 22 22 27 21 21 22 18 17 17 18 17 14 17 24 29 34 35 39 41 41 37 34 34 32 33 35 39 40 36 39 41 43 39 33
16 15 15 21 21 19 23 28 29 30 29 28 22 29 23 23 18 21 25 25 16 17 18 26 31 34 35 36 39 37 33 32 31 32 33 31 28 27 28 30 43 45 42 39
15 14 16 22 21 22 27 27 29 30 30 29 30 33 24 28 33 30 30 26 22 22 21 26 28 29 31 32 32 29 30 29 27 29 28 26 26 27 29 32 42 44 45 45
16 13 12 18 22 17 21 27 29 28 31 28 28 26 26 30 23 29 33 29 24 25 24 28 32 33 28 28 27 27 25 24 24 24 24 24 25 26 27 30 34 37 44 51
11 15 13 14 6 16 17 19 26 28 27 31 27 23 23 26 29 31 34 29 26 24 21 24 25 25 24 23 23 22 21 21 23 22 21 21 22 23 25 27 28 30 34 44
18 14 13 14 15 12 14 13 9 16 27 26 26 24 24 31 27 21 18 17 19 20 19 22 24 24 23 23 23 24 22 23 21 19 19 19 19 21 24 26 25 24 29 33
18 17 14 8 15 18 3 10 16 16 15 25 24 25 23 23 12 17 16 13 14 16 18 20 22 22 24 26 25 26 24 22 20 17 15 15 18 19 21 21 22 23 25 28
15 16 17 11 11 8 9 15 8 9 6 25 33 32 27 21 9 4 10 11 13 15 18 21 24 23 24 26 25 24 21 19 17 14 13 15 16 17 18 18 19 24 25 27
18 17 13 11 11 14 10 3 1 12 24 16 12 18 20 15 17 17 17 18 21 23 23 22 25 26 24 22 21 19 18 15 10 9 11 15 17 16 18 16 16 20 23 27
15 14 8 10 2 5 7 3 4 11 12 10 8 15 22 27 28 27 27 25 26 28 28 24 24 24 21 19 18 14 10 8 8 9 14 17 17 16 14 14 16 18 24 26
3 5 6 10 6 8 16 12 12 8 6 12 16 19 23 23 25 28 25 21 24 23 22 20 18 18 17 13 11 9 8 9 10 12 12 13 13 12 11 11 12 15 20 20
6 6 9 8 10 13 18 16 10 11 14 19 22 21 22 23 24 24 26 22 22 20 17 16 17 16 15 12 9 7 7 9 10 10 13 14 11 10 13 14 13 13 16 18
9 5 2 6 13 13 11 14 2 12 17 18 23 24 24 24 23 21 27 18 17 19 14 12 13 14 14 12 11 11 12 13 13 13 13 13 11 10 9 12 15 18 15 18
Wind_Direction
189 202 208 206 214 228 224 208 209 209 160 202 208 219 177 195 211 210 202 202 204 208 204 204 204 205 204 206 208 209 211 214 215 218 213 224 228 240 240 240 249 253 253 251
182 214 211 223 216 228 239 223 219 184 167 217 209 229 227 200 214 214 210 209 211 211 205 205 205 205 208 209 210 213 214 216 219 218 218 216 230 234 242 248 244 240 241 242
207 206 217 213 219 223 224 229 219 204 185 226 245 231 234 218 220 218 218 215 214 213 209 207 207 207 208 209 211 213 216 218 218 216 225 227 227 228 243 248 252 253 240 242
220 219 205 208 225 217 225 223 234 213 192 222 205 248 229 218 213 219 214 215 215 214 213 212 210 210 210 211 211 214 218 221 221 221 217 221 220 226 226 229 234 227 231 226
206 210 198 216 215 217 230 222 225 244 211 239 179 240 260 208 228 221 219 214 215 214 213 211 211 212 211 210 210 213 218 223 218 219 214 222 222 225 221 222 220 215 223 215
229 200 220 221 217 223 225 249 221 233 231 230 233 212 237 217 232 241 225 216 213 213 211 212 211 211 211 210 210 212 216 221 223 224 225 220 217 212 213 220 221 215 216 219
215 204 208 216 214 211 214 209 204 218 224 238 211 230 232 255 221 246 261 211 212 209 207 207 208 206 207 207 208 210 214 218 221 224 226 226 221 222 222 223 223 215 216 215
208 212 209 193 216 202 213 213 218 214 220 219 231 234 232 239 260 259 239 233 204 207 206 205 205 206 206 206 207 208 212 216 217 222 226 228 229 222 224 226 216 220 218 219
208 227 198 213 216 219 202 219 227 242 225 242 224 212 242 248 254 245 237 217 202 207 207 204 205 205 206 205 207 209 213 215 216 220 224 227 229 224 219 217 224 224 223 223
221 235 224 197 212 218 229 209 220 231 238 223 237 237 221 220 229 238 214 216 211 208 207 207 206 204 203 206 208 210 215 218 217 219 223 225 227 229 225 224 226 223 225 221
228 218 206 209 208 208 207 229 218 233 227 243 234 234 217 240 257 267 232 222 221 209 209 208 209 207 204 205 208 210 212 215 217 220 223 222 223 226 228 230 231 230 230 236
214 214 233 215 213 219 211 214 215 223 226 237 248 245 223 221 232 242 249 252 231 222 213 210 208 206 205 206 207 209 211 212 215 221 225 226 227 228 227 231 233 230 229 228
209 226 214 231 216 202 231 224 221 227 238 229 226 233 247 194 227 251 243 256 252 232 212 207 204 202 206 206 207 210 211 213 215 216 219 223 227 226 230 234 233 233 227 231
304 228 219 222 222 218 211 224 237 233 232 234 243 242 227 224 233 249 253 259 259 237 213 205 203 201 203 205 207 210 213 214 216 217 218 221 227 229 228 235 234 238 230 228
218 238 232 234 256 243 232 219 219 234 238 240 240 236 232 243 241 245 258 262 251 233 208 205 200 198 200 202 207 211 211 213 214 219 222 225 226 225 227 226 237 239 234 227
218 242 248 243 241 247 252 236 231 228 234 240 241 248 247 229 238 249 249 256 247 236 215 207 201 199 200 201 202 203 206 209 212 216 223 223 225 225 229 228 239 238 236 225
231 223 219 240 232 244 242 244 248 237 225 232 234 236 235 243 248 236 240 242 243 234 215 203 200 199 199 198 196 198 198 198 206 215 215 217 219 225 233 235 241 240 236 226
223 229 246 246 217 238 253 246 237 242 237 227 234 241 227 233 228 234 239 248 246 235 218 208 199 197 194 190 193 188 192 196 199 204 206 208 212 219 228 235 241 239 241 238
226 233 229 243 233 252 281 356 318 271 242 236 231 232 234 224 224 251 236 231 235 230 212 209 191 187 180 178 181 182 182 184 184 188 195 202 208 212 218 231 237 237 234 239
223 216 239 187 242 234 106 8 342 314 254 238 234 217 223 231 224 238 199 216 216 206 195 191 180 177 173 171 172 171 171 169 173 175 184 197 208 210 220 226 230 235 237 235
182 199 207 193 227 229 23 335 41 238 282 315 228 230 227 233 238 129 154 152 171 166 162 166 159 160 161 159 159 159 165 171 172 176 194 205 208 210 218 220 228 232 227 216
197 207 219 218 226 236 9 347 159 331 308 297 273 224 215 158 141 122 119 126 131 131 129 137 135 137 143 145 150 157 164 169 179 207 212 213 217 208 211 222 228 226 216 202
198 208 178 234 203 88 62 20 307 306 346 39 113 136 143 138 127 120 114 115 116 115 116 118 117 119 126 133 140 148 163 186 213 223 217 218 214 210 210 215 219 219 219 208
165 128 179 176 104 84 94 69 62 68 63 66 92 111 115 116 114 110 109 107 99 95 101 108 111 114 115 124 135 152 176 194 205 210 208 208 201 191 180 201 216 215 213 216
11 308 160 98 125 106 66 71 67 87 93 90 85 86 85 87 87 93 89 83 88 89 88 94 99 101 103 108 118 137 161 168 156 161 164 170 172 159 155 173 181 198 200 204
337 343 206 172 153 115 92 81 118 96 84 82 83 75 69 72 72 69 80 69 76 79 74 85 106 113 116 116 123 132 135 135 139 140 136 140 137 139 161 184 194 190 211 199
Height
1473 1476 1471 1466 1463 1461 1459 1465 1468 1465 1471 1481 1482 1486 1489 1499 1502 1504 1509 1514 1518 1521 1525 1530 1534 1538 1541 1545 1547 1550 1552 1555 1557 1560 1563 1566 1568 1569 1570 1571 1570 1570 1570 1571
1469 1467 1462 1463 1463 1463 1459 1463 1465 1460 1471 1477 1475 1481 1482 1489 1495 1498 1502 1507 1512 1516 1520 1525 1528 1532 1536 1540 1543 1546 1548 1551 1554 1558 1560 1563 1565 1567 1568 1569 1566 1567 1568 1568
1459 1456 1459 1460 1461 1464 1460 1461 1460 1462 1471 1474 1472 1480 1478 1478 1486 1492 1496 1499 1504 1508 1513 1517 1522 1526 1530 1534 1537 1540 1543 1546 1550 1552 1555 1557 1560 1562 1564 1565 1565 1565 1565 1566
1454 1449 1454 1460 1461 1457 1462 1451 1454 1457 1471 1485 1471 1488 1466 1464 1474 1481 1488 1491 1495 1499 1505 1510 1515 1520 1523 1527 1532 1535 1538 1541 1545 1548 1552 1554 1557 1559 1561 1562 1563 1563 1563 1564
1447 1447 1453 1456 1453 1451 1454 1446 1455 1456 1462 1468 1469 1482 1464 1459 1466 1467 1473 1479 1485 1490 1497 1502 1508 1513 1517 1522 1525 1529 1532 1536 1540 1543 1546 1550 1553 1556 1558 1558 1558 1559 1560 1561
1439 1443 1444 1445 1446 1448 1449 1450 1450 1454 1458 1475 1460 1470 1465 1456 1459 1454 1460 1468 1476 1483 1489 1495 1501 1506 1511 1516 1520 1523 1526 1530 1534 1538 1540 1544 1549 1552 1554 1554 1556 1558 1559 1559
1441 1436 1438 1438 1444 1444 1447 1454 1475 1483 1474 1472 1451 1461 1458 1443 1443 1447 1447 1455 1466 1474 1481 1487 1492 1497 1503 1507 1512 1516 1520 1524 1528 1531 1535 1538 1542 1546 1549 1551 1553 1555 1556 1557
1442 1448 1432 1431 1431 1437 1442 1442 1454 1482 1473 1466 1449 1464 1449 1442 1444 1444 1445 1448 1456 1464 1470 1476 1483 1489 1494 1499 1504 1509 1512 1516 1521 1525 1529 1533 1537 1542 1545 1547 1550 1551 1553 1554
1427 1432 1421 1425 1429 1426 1434 1440 1430 1441 1438 1450 1441 1446 1440 1436 1439 1439 1439 1444 1447 1453 1459 1467 1474 1480 1486 1492 1495 1499 1504 1509 1515 1519 1523 1527 1531 1535 1541 1544 1544 1547 1549 1551
1415 1432 1416 1418 1426 1422 1418 1426 1445 1432 1457 1465 1448 1442 1443 1435 1432 1429 1434 1436 1439 1445 1451 1457 1464 1470 1477 1483 1488 1494 1499 1503 1509 1513 1517 1521 1525 1529 1533 1536 1537 1539 1541 1542
1411 1422 1416 1417 1420 1418 1422 1425 1424 1425 1430 1446 1455 1440 1419 1428 1427 1425 1423 1429 1431 1437 1443 1448 1454 1462 1470 1477 1482 1487 1492 1498 1502 1506 1509 1514 1518 1522 1526 1528 1530 1534 1537 1539
1406 1411 1424 1415 1403 1408 1407 1417 1417 1428 1440 1424 1430 1426 1405 1411 1420 1421 1420 1420 1424 1429 1435 1441 1448 1456 1462 1467 1474 1479 1485 1490 1493 1498 1502 1507 1511 1515 1518 1521 1525 1527 1531 1529
1398 1408 1422 1420 1408 1406 1408 1405 1409 1411 1414 1416 1434 1428 1406 1410 1416 1418 1419 1420 1422 1426 1429 1435 1440 1445 1452 1459 1465 1471 1476 1481 1487 1492 1496 1500 1503 1506 1510 1514 1518 1521 1525 1527
1401 1397 1405 1407 1404 1396 1409 1408 1403 1405 1408 1415 1408 1411 1405 1405 1411 1412 1412 1415 1418 1422 1424 1428 1433 1438 1444 1450 1455 1461 1469 1475 1481 1486 1489 1492 1494 1498 1504 1507 1509 1512 1517 1521
1400 1405 1394 1393 1388 1385 1389 1394 1401 1402 1399 1405 1403 1403 1401 1401 1404 1409 1409 1409 1413 1418 1418 1421 1425 1429 1435 1442 1447 1454 1462 1467 1473 1478 1482 1487 1492 1496 1498 1500 1499 1503 1508 1512
1393 1401 1395 1393 1386 1386 1388 1382 1386 1388 1392 1392 1397 1395 1390 1395 1402 1403 1403 1403 1406 1411 1411 1415 1420 1425 1429 1434 1440 1447 1452 1459 1466 1470 1476 1482 1485 1485 1487 1490 1489 1494 1499 1502
1391 1393 1395 1400 1381 1379 1390 1379 1374 1372 1375 1381 1388 1383 1389 1387 1390 1392 1395 1398 1399 1401 1403 1407 1410 1415 1423 1429 1434 1440 1446 1451 1457 1461 1466 1471 1475 1476 1477 1480 1482 1484 1486 1490
1389 1391 1387 1388 1383 1407 1368 1357 1361 1363 1362 1365 1370 1374 1376 1378 1382 1387 1388 1388 1390 1394 1398 1403 1407 1413 1419 1425 1431 1436 1439 1444 1448 1452 1457 1461 1466 1469 1470 1470 1472 1476 1477 1480
1381 1386 1386 1389 1388 1370 1369 1366 1366 1366 1364 1356 1361 1367 1370 1372 1377 1380 1384 1384 1385 1389 1392 1398 1401 1407 1411 1418 1424 1428 1434 1437 1442 1446 1450 1453 1456 1458 1460 1461 1463 1467 1469 1473
1371 1379 1380 1380 1388 1388 1379 1379 1379 1382 1373 1353 1354 1360 1362 1368 1376 1368 1374 1377 1380 1384 1387 1393 1396 1402 1406 1412 1417 1423 1429 1434 1438 1441 1445 1449 1452 1455 1456 1457 1460 1462 1463 1466
1371 1369 1370 1374 1382 1375 1380 1381 1374 1390 1369 1359 1347 1351 1356 1360 1367 1369 1370 1372 1378 1381 1384 1390 1392 1398 1403 1408 1415 1421 1427 1432 1435 1438 1441 1443 1445 1448 1450 1455 1459 1463 1463 1466
1367 1371 1365 1366 1383 1382 1381 1375 1379 1382 1371 1359 1352 1351 1356 1362 1370 1371 1373 1375 1378 1381 1385 1392 1394 1396 1402 1408 1415 1421 1426 1430 1433 1435 1437 1439 1441 1444 1446 1449 1455 1459 1462 1465
1357 1351 1360 1371 1366 1383 1383 1385 1384 1384 1378 1365 1360 1360 1365 1368 1369 1373 1376 1382 1385 1384 1388 1394 1396 1400 1406 1410 1414 1420 1423 1426 1429 1431 1433 1435 1437 1440 1441 1446 1452 1455 1460 1462
1354 1355 1362 1374 1384 1384 1383 1387 1384 1388 1388 1380 1376 1375 1374 1377 1377 1375 1380 1387 1384 1386 1392 1396 1401 1404 1407 1410 1412 1416 1420 1422 1424 1426 1428 1433 1436 1438 1440 1446 1451 1455 1459 1462
1368 1368 1365 1374 1383 1384 1382 1386 1392 1395 1393 1391 1388 1387 1383 1383 1383 1385 1384 1389 1388 1393 1398 1401 1402 1405 1406 1409 1411 1413 1416 1418 1421 1425 1428 1431 1434 1437 1440 1445 1450 1454 1458 1461
1389 1380 1364 1368 1378 1377 1387 1390 1403 1397 1393 1392 1389 1390 1390 1390 1390 1391 1383 1397 1399 1397 1404 1407 1407 1407 1407 1407 1410 1412 1414 1419 1423 1427 1430 1434 1435 1437 1442 1447 1451 1455 1456 1459